CZ-4B DEB, 38313

Orbit data source: Space-Track

CZ-4B DEB, 38313 is space debris in SSO originally from a launch on Mon, 15 Aug 2011 UTC launched from the Taiyaun Space Center, China (TSC). Debris objects in space refer to the collection of defunct objects orbiting the Earth. Examples of debris include non-operational satellites, rocket bodies, and fragments generated from explosions, collisions, or faulty payload assembly.

Loading next visibility...
Identifier
38313, 2011-043C
Orbit
SSO
Country
Flag of CNCN / PRC
Related business
Manufacturer
Unknown
Mission
Spacecraft
Bus & Motor
Unknown
Mass
Unknown
Launch date (UTC)
2011-08-15 (15 years ago)
Launch vehicle
Unknown
Launch site
Taiyaun Space Center, China (TSC)
Object type
Payload
Rocket body
Debris
Shape & HBR
Unknown shape, 0.1 m
Radar Cross Section
Small (<0.1 m²)

Expand to show TLE details & history
Last TLE update: 5 days ago

TLE from 5 days ago
0 CZ-4B DEB
1 38313U 11043C   26168.41323097  .00000183  00000-0  29647-3 0  9992
2 38313  99.3857  19.4417 0217688 275.9309 206.6728 13.52057286650454
Epoch: 2026-06-17T09:55Z
TLE epoch observation values (Epoch: 2026-06-17T09:55:03.155Z)
Latitude
57.35377°
Longitude
159.8819°
Altitude
1,219.746 km
Speed
7.179 km/s
True Right ascension
14h 17m 15s
True Declination
57° 12' 25"
Sunlit
Object was in daylight at epoch
Visualization orbit readout
Latitude
Unknown
Longitude
Unknown
Altitude
Unknown
Speed
Unknown
Apparent Right ascension
Unknown
Apparent Declination
Unknown
Sunlit
N/A
Visualization observer readout
Local Sidereal Time
01:06:59
Azimuth
Unknown
Elevation
Unknown
Doppler factor
Unknown
Orbital elements
Apogee altitude
1,223.942 km
Perigee altitude
900.017 km
Semi-major axis
7,440.117 km
Eccentricity
0.02177
Inclination
99.3857°
RAAN
19.4417°
Arg. of periapsis
275.9309°
True anomaly
205.57969°
Mean anomaly
206.6728°
Eccentric anomaly
206.12362°
Mean motion
3.382 °/min
Orbital period
106.45 mins
BSTAR
0.00029647
Loading maneuver chart data...
Computing Atmospheric mass density...
Loading historical data...
Loading historical data...
Loading historical data...
Loading historical data...
Loading historical data...
Loading historical data...
Loading historical data...

Documentation

Showing up to 5 results
|